VR2R-13 Weather Reports


Display with metric or nautical units.
time (UTC)temp
F
wind
direction
speed
MPH
gust
MPH
rain 1hr
in
rain 24hr
in
rain mn
in
humidity
%
barometer
mb
20260510101839 65 65 0.0 4.0 0.00 0.00 0.00 98 915.0
20260510101837 65 64 0.0 4.0 0.00 0.00 0.00 98 915.0
20260510101337 65 358 0.0 6.0 0.00 0.00 0.00 98 915.0
20260510100837 65 15 3.0 6.0 0.00 0.00 0.00 98 914.9
20260510100639 65 115 3.0 6.0 0.00 0.00 0.00 98 914.8
20260510100337 65 3 2.0 4.0 0.00 0.00 0.00 98 914.8
20260510100038 65 20 1.0 4.0 0.00 0.00 0.00 98 914.8
20260510095837 65 39 0.0 4.0 0.00 0.00 0.00 98 914.8
20260510095438 65 358 1.0 4.0 0.00 0.00 0.00 98 914.8
20260510095338 65 330 0.0 1.0 0.00 0.00 0.00 98 914.9
20260510094839 65 71 0.0 3.0 0.00 0.00 0.00 98 914.9
20260510094837 65 70 0.0 3.0 0.00 0.00 0.00 98 914.9
20260510094337 65 64 0.0 1.0 0.00 0.00 0.00 98 914.8
20260510094239 65 45 0.0 1.0 0.00 0.00 0.00 98 914.8
20260510093638 65 116 0.0 0.0 0.00 0.00 0.00 98 914.8
20260510093337 65 55 0.0 0.0 0.00 0.00 0.00 98 914.8
20260510093038 65 0 1.0 5.0 0.00 0.00 0.00 98 914.8
20260510092837 65 28 1.0 5.0 0.00 0.00 0.00 98 914.8
20260510092438 65 41 0.0 1.0 0.00 0.00 0.00 98 914.8
20260510092337 65 173 0.0 1.0 0.00 0.00 0.00 98 914.8
20260510091839 65 93 0.0 0.0 0.00 0.00 0.00 98 914.8
20260510091837 65 92 0.0 0.0 0.00 0.00 0.00 98 914.8
20260510091337 65 72 0.0 3.0 0.00 0.00 0.00 98 914.8
20260510091238 65 58 1.0 3.0 0.00 0.00 0.00 98 914.7
20260510090837 65 35 0.0 2.0 0.00 0.00 0.00 98 914.6
20260510090638 65 131 0.0 0.0 0.00 0.00 0.00 98 914.6
20260510090337 65 129 0.0 0.0 0.00 0.00 0.00 98 914.6
20260510090039 65 157 0.0 4.0 0.00 0.00 0.00 98 914.6
20260510085837 65 48 0.0 4.0 0.00 0.00 0.00 98 914.6
20260510085438 65 50 0.0 0.0 0.00 0.00 0.00 98 914.6
20260510085336 65 9 0.0 0.0 0.00 0.00 0.00 98 914.6
20260510084838 65 103 0.0 0.0 0.00 0.00 0.00 98 914.6
20260510084238 66 106 0.0 3.0 0.00 0.00 0.00 98 914.6
20260510083638 65 31 0.0 4.0 0.00 0.00 0.00 98 914.6
20260510083038 65 60 0.0 6.0 0.00 0.00 0.00 98 914.6
20260510082438 65 85 0.0 3.0 0.00 0.00 0.00 98 914.6
20260510081839 65 48 0.0 6.0 0.00 0.00 0.00 98 914.7
20260510081238 66 133 0.0 3.0 0.00 0.00 0.00 98 914.7
20260510080638 65 96 0.0 0.0 0.00 0.00 0.00 98 914.7
20260510080037 65 71 0.0 4.0 0.00 0.00 0.00 98 914.6
20260510074838 66 184 0.0 3.0 0.00 0.00 0.00 98 914.5
20260510074836 66 181 0.0 3.0 0.00 0.00 0.00 98 914.5
20260510074336 66 50 1.0 4.0 0.00 0.00 0.00 98 914.4
20260510074238 66 337 0.0 4.0 0.00 0.00 0.00 98 914.4
20260510073836 65 48 2.0 5.0 0.00 0.00 0.00 98 914.4
20260510073637 65 34 2.0 5.0 0.00 0.00 0.00 98 914.5
20260510073037 66 45 3.0 5.0 0.00 0.00 0.00 98 914.5
20260510072439 65 36 1.0 5.0 0.00 0.00 0.00 98 914.5
20260510071838 65 96 0.0 0.0 0.00 0.00 0.00 98 914.6
20260510071237 65 80 0.0 1.0 0.00 0.00 0.00 98 914.6
20260510070836 66 72 0.0 0.0 0.00 0.00 0.00 98 914.6
20260510070637 66 71 0.0 2.0 0.00 0.00 0.00 98 914.7
20260510070336 66 230 0.0 0.0 0.00 0.00 0.00 99 914.7
20260510070037 64 317 0.0 4.0 0.00 0.00 0.00 98 914.7
20260510065836 64 62 2.0 4.0 0.00 0.00 0.00 98 914.7
20260510065437 64 58 1.0 2.0 0.00 0.00 0.00 98 914.8
20260510065342 64 68 1.0 2.0 0.00 0.00 0.00 98 914.9
20260510064237 64 97 0.0 2.0 0.00 0.00 0.00 98 915.0
20260510063637 64 42 0.0 0.0 0.00 0.00 0.00 98 915.1
20260510063037 64 86 1.0 3.0 0.00 0.00 0.00 98 915.0
20260510062437 64 57 1.0 2.0 0.00 0.00 0.00 98 915.2
20260510061836 63 90 0.0 0.0 0.00 0.00 0.00 98 915.3
20260510061335 64 109 0.0 2.0 0.00 0.00 0.00 98 915.3
20260510061237 64 97 0.0 2.0 0.00 0.00 0.00 98 915.4
20260510060835 64 104 0.0 1.0 0.00 0.00 0.00 98 915.4
20260510060637 64 71 0.0 1.0 0.00 0.00 0.00 98 915.4
20260510060037 64 72 1.0 4.0 0.00 0.00 0.00 98 915.4
20260510055437 63 84 1.0 4.0 0.00 0.00 0.00 98 915.5
20260510054837 64 85 1.0 5.0 0.00 0.00 0.00 98 915.5
20260510054335 64 90 0.0 2.0 0.00 0.00 0.00 98 915.6
20260510054236 64 76 0.0 2.0 0.00 0.00 0.00 98 915.6
20260510053835 64 57 2.0 3.0 0.00 0.00 0.00 98 915.6
20260510053636 64 96 1.0 3.0 0.00 0.00 0.00 98 915.6
20260510053335 64 102 2.0 4.0 0.00 0.00 0.00 98 915.6
20260510053036 64 123 3.0 5.0 0.00 0.00 0.00 98 915.7
20260510052836 64 110 1.0 3.0 0.00 0.00 0.00 98 915.7
20260510052436 64 165 0.0 0.0 0.00 0.00 0.00 98 915.8
20260510050335 64 100 3.0 4.0 0.00 0.00 0.00 98 915.8
20260510050036 64 75 2.0 4.0 0.00 0.00 0.00 98 915.8
20260510045835 64 78 1.0 4.0 0.00 0.00 0.00 98 915.8
20260510045436 63 51 0.0 3.0 0.00 0.00 0.00 98 915.8
20260510045335 64 77 1.0 4.0 0.00 0.00 0.00 98 915.8
20260510044836 63 122 2.0 4.0 0.00 0.00 0.00 98 915.8
20260510044335 63 84 1.0 6.0 0.00 0.00 0.00 98 915.8
20260510044236 63 89 1.0 6.0 0.00 0.00 0.00 97 915.9
20260510043835 64 85 3.0 5.0 0.00 0.00 0.00 98 916.0
20260510043636 64 87 4.0 7.0 0.00 0.00 0.00 98 916.0
20260510043335 64 67 4.0 7.0 0.00 0.00 0.00 98 916.0
20260510043037 63 84 3.0 7.0 0.00 0.00 0.00 98 916.0
20260510042836 63 45 4.0 7.0 0.00 0.00 0.00 97 916.0
20260510042436 63 68 4.0 6.0 0.00 0.00 0.00 97 916.1
20260510042334 63 72 4.0 5.0 0.00 0.00 0.00 98 916.1
20260510041836 63 74 0.0 0.0 0.00 0.00 0.00 98 916.2
20260510041334 63 90 2.0 5.0 0.00 0.00 0.00 98 916.2
20260510041236 63 51 3.0 5.0 0.00 0.00 0.00 98 916.2
20260510040834 63 83 3.0 5.0 0.00 0.00 0.00 98 916.2
20260510040636 63 74 4.0 5.0 0.00 0.00 0.00 97 916.2
20260510040334 63 77 3.0 5.0 0.00 0.00 0.00 98 916.2
20260510040036 63 81 3.0 5.0 0.00 0.00 0.00 97 916.2
20260510035834 63 99 2.0 5.0 0.00 0.00 0.00 98 916.3
20260510035436 63 87 2.0 5.0 0.00 0.00 0.00 98 916.4
20260510035334 63 56 3.0 5.0 0.00 0.00 0.00 97 916.4
20260510034836 63 61 3.0 5.0 0.00 0.00 0.00 98 916.4
20260510034236 63 63 4.0 6.0 0.00 0.00 0.00 98 916.3
20260510033635 63 73 3.0 6.0 0.00 0.00 0.00 98 916.4
20260510033334 63 72 2.0 5.0 0.00 0.00 0.00 97 916.4
20260510033035 63 76 0.0 5.0 0.00 0.00 0.00 98 916.4
20260510032835 63 88 2.0 3.0 0.00 0.00 0.00 98 916.3
20260510032435 63 73 1.0 4.0 0.00 0.00 0.00 97 916.3
20260510031836 63 54 2.0 6.0 0.00 0.00 0.00 97 916.4
20260510031834 63 55 2.0 6.0 0.00 0.00 0.00 97 916.4
20260510031334 63 60 3.0 6.0 0.00 0.00 0.00 98 916.5
20260510031235 63 78 3.0 6.0 0.00 0.00 0.00 98 916.5
20260510030834 63 84 4.0 6.0 0.00 0.00 0.00 98 916.5
20260510030635 63 71 2.0 6.0 0.00 0.00 0.00 98 916.5
20260510030334 63 58 2.0 6.0 0.00 0.00 0.00 98 916.6
20260510030035 63 101 4.0 6.0 0.00 0.00 0.00 98 916.6
20260510025834 63 83 1.0 5.0 0.00 0.00 0.00 98 916.6
20260510025435 63 106 3.0 6.0 0.00 0.00 0.00 98 916.6
20260510025334 63 89 4.0 6.0 0.00 0.00 0.00 97 916.6
20260510024836 63 83 3.0 5.0 0.00 0.00 0.00 98 916.6
20260510024834 63 86 3.0 5.0 0.00 0.00 0.00 98 916.6
20260510024334 63 98 1.0 5.0 0.00 0.00 0.00 98 916.7
20260510023334 62 105 0.0 4.0 0.00 0.00 0.00 98 916.7
20260510023035 63 89 4.0 6.0 0.00 0.00 0.00 98 916.7
20260510022834 62 101 0.0 6.0 0.00 0.00 0.00 98 916.8
20260510022435 63 100 0.0 6.0 0.00 0.00 0.00 98 916.8
20260510022334 63 93 5.0 6.0 0.00 0.00 0.00 98 916.8
20260510021334 63 97 0.0 5.0 0.00 0.00 0.00 98 916.9
20260510021235 63 107 2.0 5.0 0.00 0.00 0.00 98 916.9
20260510020834 62 96 0.0 3.0 0.00 0.00 0.00 98 916.9
20260510020635 62 86 1.0 3.0 0.00 0.00 0.00 98 916.9
20260510015833 63 96 2.0 4.0 0.00 0.00 0.00 98 916.9
20260510015435 62 60 0.0 4.0 0.00 0.00 0.00 98 916.8
20260510015333 63 98 2.0 7.0 0.00 0.00 0.00 98 916.8
20260510013635 62 84 7.0 9.0 0.00 0.00 0.00 98 916.8
20260510013333 63 70 5.0 11.0 0.00 0.00 0.00 98 916.8
20260510013035 62 72 6.0 11.0 0.00 0.00 0.00 98 916.8
20260510012833 62 77 7.0 11.0 0.00 0.00 0.00 98 916.8
20260510012434 62 73 3.0 11.0 0.00 0.00 0.00 98 916.8
20260510011333 62 75 2.0 8.0 0.00 0.00 0.00 98 916.7
20260510011235 62 82 6.0 9.0 0.00 0.00 0.00 98 916.7
20260510010634 62 64 2.0 9.0 0.00 0.00 0.00 98 916.6
20260510010334 62 85 4.0 7.0 0.00 0.00 0.00 98 916.6
20260510010034 62 56 6.0 8.0 0.00 0.00 0.00 98 916.5
20260510005833 62 71 4.0 8.0 0.00 0.00 0.00 98 916.5
20260510005434 62 70 6.0 8.0 0.00 0.00 0.00 98 916.6
20260510005333 62 86 2.0 7.0 0.00 0.00 0.00 98 916.5
20260510004835 62 65 7.0 9.0 0.00 0.00 0.00 97 916.5
20260510004333 62 77 6.0 9.0 0.00 0.00 0.00 98 916.4
20260510004234 62 80 6.0 9.0 0.00 0.00 0.00 97 916.4
20260510003833 62 81 7.0 9.0 0.00 0.00 0.00 98 916.3
20260510003634 62 67 7.0 9.0 0.00 0.00 0.00 98 916.3
20260510003333 62 73 6.0 9.0 0.00 0.00 0.00 98 916.3
20260510003034 62 70 7.0 9.0 0.00 0.00 0.00 98 916.2
20260510002833 62 68 7.0 8.0 0.00 0.00 0.00 98 916.1
20260510002434 62 70 6.0 7.0 0.00 0.00 0.00 97 916.2
20260510002333 62 80 2.0 7.0 0.00 0.00 0.00 98 916.2
20260510001834 62 66 5.0 7.0 0.00 0.00 0.00 98 916.1
20260510001332 62 44 2.0 5.0 0.00 0.00 0.00 98 916.1
20260510000833 62 53 5.0 8.0 0.00 0.00 0.00 97 916.1
20260510000634 62 69 5.0 8.0 0.00 0.00 0.00 98 916.1
20260510000333 62 57 6.0 8.0 0.00 0.00 0.00 98 916.0
20260510000034 62 79 6.0 8.0 0.00 0.00 0.00 97 916.0
20260509235832 62 75 5.0 7.0 0.00 0.00 0.00 98 916.0
20260509235333 62 64 6.0 9.0 0.00 0.00 0.00 98 916.0
20260509234834 62 66 7.0 9.0 0.00 0.00 0.00 98 916.0
20260509234832 62 56 7.0 9.0 0.00 0.00 0.00 98 916.0
20260509234332 62 63 7.0 10.0 0.00 0.00 0.00 97 916.0
20260509234234 62 55 7.0 11.0 0.00 0.00 0.00 97 915.9
20260509233832 62 33 8.0 12.0 0.00 0.00 0.00 98 915.9
20260509233634 62 72 8.0 12.0 0.00 0.00 0.00 98 915.8
20260509233332 62 64 10.0 12.0 0.00 0.00 0.00 98 915.8
20260509232832 62 58 8.0 11.0 0.00 0.00 0.00 98 915.8
20260509232434 62 61 9.0 11.0 0.00 0.00 0.00 98 915.7
20260509232332 62 61 4.0 11.0 0.00 0.00 0.00 98 915.7
20260509231834 62 98 10.0 12.0 0.00 0.00 0.00 98 915.5
20260509231832 62 57 10.0 12.0 0.00 0.00 0.00 98 915.5
20260509231332 62 77 9.0 12.0 0.00 0.00 0.00 98 915.5
20260509231234 62 78 4.0 11.0 0.00 0.00 0.00 98 915.6
20260509230832 62 76 9.0 11.0 0.00 0.00 0.00 97 915.5
20260509230633 62 69 9.0 11.0 0.00 0.00 0.00 98 915.6
20260509230332 62 70 9.0 11.0 0.00 0.00 0.00 97 915.6
20260509230033 62 65 8.0 10.0 0.00 0.00 0.00 98 915.5
20260509225833 62 62 6.0 9.0 0.00 0.00 0.00 98 915.5
20260509225433 62 77 7.0 9.0 0.00 0.00 0.00 97 915.5
20260509225332 62 89 7.0 9.0 0.00 0.00 0.00 97 915.5
20260509224834 62 54 6.0 8.0 0.00 0.00 0.00 98 915.4
20260509224832 62 79 6.0 8.0 0.00 0.00 0.00 98 915.4
20260509224332 62 83 6.0 8.0 0.00 0.00 0.00 97 915.5
20260509224233 62 80 6.0 8.0 0.00 0.00 0.00 97 915.4
20260509223832 62 73 5.0 6.0 0.00 0.00 0.00 98 915.4
20260509223633 62 65 0.0 5.0 0.00 0.00 0.00 98 915.4
20260509223332 62 64 4.0 8.0 0.00 0.00 0.00 97 915.4
20260509223033 62 49 4.0 8.0 0.00 0.00 0.00 97 915.3
20260509222832 62 58 4.0 8.0 0.00 0.00 0.00 97 915.4
20260509222433 62 81 5.0 8.0 0.00 0.00 0.00 97 915.3
20260509222332 62 72 6.0 8.0 0.00 0.00 0.00 97 915.2
20260509221833 62 69 6.0 9.0 0.00 0.00 0.00 97 915.2
20260509221332 62 66 7.0 9.0 0.00 0.00 0.00 97 915.2
20260509221233 62 68 7.0 9.0 0.00 0.00 0.00 97 915.1
20260509220831 62 54 6.0 8.0 0.00 0.00 0.00 97 915.1
20260509220633 62 67 4.0 6.0 0.00 0.00 0.00 97 915.2
20260509220332 62 63 4.0 7.0 0.00 0.00 0.00 97 915.3
20260509220033 62 61 3.0 8.0 0.00 0.00 0.00 98 915.2
20260509215831 62 54 5.0 8.0 0.00 0.00 0.00 97 915.2
20260509215433 62 81 5.0 8.0 0.00 0.00 0.00 97 915.1
20260509215332 62 58 5.0 8.0 0.00 0.00 0.00 97 915.2
20260509214833 62 88 7.0 8.0 0.00 0.00 0.00 98 914.9
20260509214831 62 51 7.0 8.0 0.00 0.00 0.00 98 915.0
20260509214331 62 56 6.0 9.0 0.00 0.00 0.00 97 914.8
20260509214233 62 61 6.0 9.0 0.00 0.00 0.00 97 914.9
20260509213831 62 67 6.0 9.0 0.00 0.00 0.00 97 914.9
20260509213633 62 59 7.0 9.0 0.00 0.00 0.00 97 914.8
20260509213331 62 77 6.0 8.0 0.00 0.00 0.00 97 914.8
20260509213033 62 48 6.0 8.0 0.00 0.00 0.00 97 914.7
20260509212834 62 70 6.0 8.0 0.00 0.00 0.00 97 914.8
20260509212433 62 44 6.0 8.0 0.00 0.00 0.00 97 914.8
20260509212331 62 35 5.0 7.0 0.00 0.00 0.00 97 914.8
20260509211833 62 70 4.0 8.0 0.00 0.00 0.00 97 914.8
20260509211831 62 51 4.0 8.0 0.00 0.00 0.00 97 914.8
20260509211331 62 67 6.0 8.0 0.00 0.00 0.00 97 914.7
20260509211233 62 67 6.0 8.0 0.00 0.00 0.00 97 914.7
20260509210831 62 63 5.0 7.0 0.00 0.00 0.00 97 914.8
20260509210632 62 50 6.0 7.0 0.00 0.00 0.00 97 914.8
20260509210331 62 66 5.0 9.0 0.00 0.00 0.00 97 914.8
20260509210032 62 53 5.0 9.0 0.00 0.00 0.00 97 914.8
20260509205831 62 62 6.0 9.0 0.00 0.00 0.00 97 914.8
20260509205432 62 80 7.0 9.0 0.00 0.00 0.00 97 914.6
20260509205331 62 63 7.0 9.0 0.00 0.00 0.00 97 914.6
20260509204833 62 67 5.0 8.0 0.00 0.00 0.00 97 914.7
20260509204831 62 73 5.0 8.0 0.00 0.00 0.00 97 914.7
20260509204331 62 57 5.0 8.0 0.00 0.00 0.00 97 914.7
20260509204232 62 65 6.0 8.0 0.00 0.00 0.00 97 914.7
20260509203832 62 78 5.0 7.0 0.00 0.00 0.00 97 914.7
20260509203632 62 53 5.0 8.0 0.00 0.00 0.00 97 914.7
20260509203331 62 67 5.0 9.0 0.00 0.00 0.00 97 914.7
20260509203032 62 52 5.0 9.0 0.00 0.00 0.00 97 914.7
20260509202831 62 70 5.0 9.0 0.00 0.00 0.00 97 914.6
20260509202432 62 53 6.0 9.0 0.00 0.00 0.00 97 914.6
20260509202331 62 72 6.0 9.0 0.00 0.00 0.00 97 914.6
20260509201331 62 53 4.0 10.0 0.00 0.00 0.00 97 914.8
20260509201232 62 78 5.0 10.0 0.00 0.00 0.00 97 914.7
20260509200831 62 62 9.0 10.0 0.00 0.00 0.00 97 914.5
20260509200632 62 62 8.0 10.0 0.00 0.00 0.00 97 914.5
20260509200331 62 72 8.0 10.0 0.00 0.00 0.00 98 914.6
20260509200032 62 63 8.0 10.0 0.00 0.00 0.00 97 914.5
20260509195831 62 39 8.0 10.0 0.00 0.00 0.00 97 914.6
20260509195432 62 71 7.0 10.0 0.00 0.00 0.00 97 914.6
20260509195331 62 77 7.0 10.0 0.00 0.00 0.00 97 914.6
20260509194832 62 61 8.0 10.0 0.00 0.00 0.00 97 914.6
20260509194331 62 53 7.0 10.0 0.00 0.00 0.00 98 914.6
20260509194232 62 69 6.0 8.0 0.00 0.00 0.00 98 914.6
20260509193830 62 48 6.0 8.0 0.00 0.00 0.00 97 914.7
20260509193632 62 44 6.0 9.0 0.00 0.00 0.00 98 914.7
20260509193330 62 59 6.0 9.0 0.00 0.00 0.00 98 914.7
20260509193032 62 75 7.0 11.0 0.00 0.00 0.00 98 914.6
20260509192833 62 74 7.0 11.0 0.00 0.00 0.00 98 914.7
20260509192432 62 52 8.0 11.0 0.00 0.00 0.00 97 914.7
20260509192330 62 64 8.0 11.0 0.00 0.00 0.00 97 914.7
20260509191832 62 87 7.0 9.0 0.00 0.00 0.00 97 914.8
20260509191830 62 88 7.0 9.0 0.00 0.00 0.00 97 914.7
20260509191330 62 57 6.0 8.0 0.00 0.00 0.00 98 914.8
20260509191232 62 61 6.0 9.0 0.00 0.00 0.00 98 914.8
20260509190830 62 70 4.0 9.0 0.00 0.00 0.00 98 915.0
20260509190632 62 74 5.0 9.0 0.00 0.00 0.00 98 914.9
20260509190330 62 74 7.0 9.0 0.00 0.00 0.00 98 915.0
20260509190031 62 53 5.0 9.0 0.00 0.00 0.00 98 915.0
20260509185830 62 59 6.0 9.0 0.00 0.00 0.00 98 915.0
20260509185431 62 62 5.0 8.0 0.00 0.00 0.00 98 914.8
20260509185330 62 78 5.0 8.0 0.00 0.00 0.00 98 914.8
20260509184832 62 58 5.0 7.0 0.00 0.00 0.00 98 915.0
20260509184830 62 58 5.0 7.0 0.00 0.00 0.00 98 914.9
20260509184330 62 40 4.0 11.0 0.00 0.00 0.00 98 915.0
20260509184231 62 57 4.0 11.0 0.00 0.00 0.00 98 915.0
20260509183830 62 48 7.0 11.0 0.00 0.00 0.00 98 915.0
20260509183631 62 41 8.0 11.0 0.00 0.00 0.00 98 914.9
20260509183330 62 50 9.0 11.0 0.00 0.00 0.00 98 914.9
20260509183031 62 64 7.0 12.0 0.00 0.00 0.00 98 915.0
20260509182830 62 70 6.0 12.0 0.00 0.00 0.00 98 915.1
20260509182431 62 53 7.0 12.0 0.00 0.00 0.00 98 915.0
20260509182330 62 70 8.0 12.0 0.00 0.00 0.00 98 915.1
20260509181832 62 53 7.0 10.0 0.00 0.00 0.00 98 915.0
20260509181830 62 67 7.0 10.0 0.00 0.00 0.00 98 915.0
20260509181330 62 56 9.0 10.0 0.00 0.00 0.00 98 915.0
20260509181231 62 58 8.0 11.0 0.00 0.00 0.00 98 915.1
20260509180830 62 70 7.0 11.0 0.00 0.00 0.00 98 915.1
20260509180631 62 64 8.0 11.0 0.00 0.00 0.00 98 915.1
20260509180330 62 58 9.0 12.0 0.00 0.00 0.00 98 915.1
20260509180031 62 64 7.0 12.0 0.00 0.00 0.00 98 915.2
20260509175830 62 77 9.0 12.0 0.00 0.00 0.00 98 915.2
20260509175431 62 53 10.0 12.0 0.00 0.00 0.00 98 915.1
20260509175330 62 74 10.0 12.0 0.00 0.00 0.00 98 915.1
20260509174830 62 70 8.0 12.0 0.00 0.00 0.00 98 915.2
20260509174330 62 55 9.0 12.0 0.00 0.00 0.00 98 915.2
20260509174231 62 69 9.0 12.0 0.00 0.00 0.00 98 915.2
20260509173829 62 74 10.0 12.0 0.00 0.00 0.00 98 915.2
20260509173631 62 81 10.0 12.0 0.00 0.00 0.00 98 915.2
20260509173329 61 58 1.0 10.0 0.00 0.00 0.00 99 915.2
20260509170830 62 74 10.0 13.0 0.00 0.00 0.00 98 915.4
20260509170630 62 64 1.0 12.0 0.00 0.00 0.00 98 915.5
20260509170030 62 75 10.0 14.0 0.00 0.00 0.00 98 915.5
20260509165830 62 64 10.0 13.0 0.00 0.00 0.00 97 915.5
20260509165431 62 73 10.0 12.0 0.00 0.00 0.00 98 915.5
20260509165329 62 77 9.0 12.0 0.00 0.00 0.00 98 915.5
20260509164831 62 68 9.0 13.0 0.00 0.00 0.00 98 915.6
20260509164829 62 50 9.0 13.0 0.00 0.00 0.00 98 915.6
20260509164329 62 52 10.0 13.0 0.00 0.00 0.00 98 915.5
20260509164231 62 75 9.0 13.0 0.00 0.00 0.00 98 915.6
20260509163829 62 75 6.0 12.0 0.00 0.00 0.00 98 915.7
20260509163630 62 45 0.0 0.0 0.00 0.00 0.00 98 915.8
20260509163329 62 90 11.0 15.0 0.00 0.00 0.00 98 915.7
20260509163030 62 72 10.0 15.0 0.00 0.00 0.00 98 915.8
20260509162829 62 76 11.0 15.0 0.00 0.00 0.00 98 915.9
20260509162430 62 65 0.0 11.0 0.00 0.00 0.00 98 915.9
20260509162329 62 71 12.0 14.0 0.00 0.00 0.00 98 915.9
20260509161831 62 64 10.0 14.0 0.00 0.00 0.00 98 916.0
20260509161330 62 64 10.0 14.0 0.00 0.00 0.00 98 916.0
20260509161230 62 68 11.0 14.0 0.00 0.00 0.00 98 916.0
20260509160829 62 74 10.0 14.0 0.00 0.00 0.00 98 916.2
20260509160630 62 82 10.0 14.0 0.00 0.00 0.00 98 916.2
20260509160329 62 80 10.0 14.0 0.00 0.00 0.00 98 916.2
20260509160030 62 52 10.0 14.0 0.00 0.00 0.00 98 916.3
20260509155829 62 71 9.0 14.0 0.00 0.00 0.00 98 916.3
20260509155431 62 73 9.0 13.0 0.00 0.00 0.00 98 916.3
20260509155329 62 66 10.0 13.0 0.00 0.00 0.00 98 916.4
20260509154830 62 79 10.0 13.0 0.00 0.00 0.00 98 916.4
20260509154230 62 63 1.0 10.0 0.00 0.00 0.00 98 916.6
20260509153829 62 79 1.0 11.0 0.00 0.00 0.00 98 916.5
20260509153630 62 83 10.0 13.0 0.00 0.00 0.00 98 916.5
20260509153329 62 57 9.0 12.0 0.00 0.00 0.00 98 916.6
20260509152829 62 61 6.0 11.0 0.00 0.00 0.00 98 916.6
20260509152430 62 67 9.0 11.0 0.00 0.00 0.00 98 916.7
20260509151830 62 90 7.0 10.0 0.00 0.00 0.00 98 916.6
20260509151828 62 81 7.0 10.0 0.00 0.00 0.00 98 916.6
20260509151328 62 75 7.0 10.0 0.00 0.00 0.00 98 916.7
20260509151230 62 74 7.0 11.0 0.00 0.00 0.00 98 916.7
20260509150841 62 73 7.0 11.0 0.00 0.00 0.00 98 916.7
20260509150630 62 58 8.0 11.0 0.00 0.00 0.00 98 916.7
20260509150329 62 92 7.0 11.0 0.00 0.00 0.00 99 916.7
20260509144830 62 76 0.0 9.0 0.00 0.00 0.00 98 916.7
20260509144828 62 78 0.0 9.0 0.00 0.00 0.00 98 916.7
20260509144328 62 108 2.0 10.0 0.00 0.00 0.00 98 916.7
20260509143631 62 56 0.0 0.0 0.00 0.00 0.00 98 916.7
20260509143328 62 70 8.0 10.0 0.00 0.00 0.00 98 916.7
20260509143029 62 64 9.0 10.0 0.00 0.00 0.00 98 916.7
20260509142828 62 60 8.0 9.0 0.00 0.00 0.00 98 916.7
20260509142429 62 65 3.0 9.0 0.00 0.00 0.00 98 916.7
20260509141830 62 49 7.0 9.0 0.00 0.00 0.00 98 916.8
20260509141828 62 39 7.0 9.0 0.00 0.00 0.00 98 916.7
20260509141329 62 61 0.0 7.0 0.00 0.00 0.00 98 916.8
20260509141229 62 70 8.0 10.0 0.00 0.00 0.00 98 916.8
20260509140828 62 72 8.0 10.0 0.00 0.00 0.00 98 916.7
20260509140629 62 62 8.0 10.0 0.00 0.00 0.00 98 916.8
20260509140328 62 81 8.0 9.0 0.00 0.00 0.00 98 916.7
20260509140029 62 64 8.0 9.0 0.00 0.00 0.00 98 916.7
20260509135828 62 59 3.0 9.0 0.00 0.00 0.00 98 916.7
20260509135429 62 70 8.0 12.0 0.00 0.00 0.00 98 916.8
20260509135328 62 51 8.0 12.0 0.00 0.00 0.00 98 916.7
20260509134830 62 63 9.0 12.0 0.00 0.00 0.00 98 916.7
20260509134828 62 70 9.0 12.0 0.00 0.00 0.00 98 916.7
20260509134328 62 84 10.0 12.0 0.00 0.00 0.00 98 916.7
20260509134229 62 65 10.0 12.0 0.00 0.00 0.00 98 916.7
20260509133828 62 71 9.0 10.0 0.00 0.00 0.00 98 916.7
20260509133629 62 83 8.0 10.0 0.00 0.00 0.00 98 916.7
20260509133328 62 74 8.0 11.0 0.00 0.00 0.00 98 916.8
20260509133029 62 61 8.0 10.0 0.00 0.00 0.00 98 916.8
20260509132828 62 75 8.0 10.0 0.00 0.00 0.00 98 916.7
20260509132429 62 72 8.0 10.0 0.00 0.00 0.00 98 916.7
20260509132328 62 51 4.0 10.0 0.00 0.00 0.00 98 916.7
20260509131829 62 78 7.0 10.0 0.00 0.00 0.00 98 916.7
20260509131827 62 69 7.0 10.0 0.00 0.00 0.00 98 916.7
20260509131327 62 83 7.0 10.0 0.00 0.00 0.00 98 916.6
20260509131229 62 74 2.0 10.0 0.00 0.00 0.00 98 916.6
20260509130828 62 52 7.0 10.0 0.00 0.00 0.00 98 916.5
20260509130629 62 59 4.0 8.0 0.00 0.00 0.00 98 916.5
20260509130327 62 59 8.0 10.0 0.00 0.00 0.00 98 916.5
20260509130029 62 61 7.0 9.0 0.00 0.00 0.00 98 916.4
20260509125827 62 67 2.0 7.0 0.00 0.00 0.00 98 916.4
20260509125429 62 70 1.0 8.0 0.00 0.00 0.00 98 916.3
20260509125327 62 67 6.0 8.0 0.00 0.00 0.00 98 916.3
20260509124829 62 89 7.0 9.0 0.00 0.00 0.00 98 916.2
20260509124827 62 77 7.0 9.0 0.00 0.00 0.00 98 916.3
20260509124328 62 74 3.0 9.0 0.00 0.00 0.00 98 916.2
20260509123827 62 72 7.0 9.0 0.00 0.00 0.00 98 916.2
20260509123628 62 68 7.0 9.0 0.00 0.00 0.00 98 916.1
20260509123327 62 53 6.0 8.0 0.00 0.00 0.00 98 916.2
20260509123029 62 55 5.0 8.0 0.00 0.00 0.00 99 916.1
20260509120327 62 59 8.0 10.0 0.00 0.00 0.00 98 915.6
20260509120028 62 56 0.0 9.0 0.00 0.00 0.00 98 915.5
20260509115827 62 72 8.0 10.0 0.00 0.00 0.00 98 915.6
20260509115428 62 62 0.0 9.0 0.00 0.00 0.00 98 915.5
20260509114830 62 73 8.0 11.0 0.00 0.00 0.00 98 915.5
20260509114828 62 61 8.0 11.0 0.00 0.00 0.00 98 915.5
20260509114327 62 49 8.0 11.0 0.00 0.00 0.00 98 915.6
20260509114228 62 72 8.0 11.0 0.00 0.00 0.00 98 915.6
20260509113827 62 66 5.0 10.0 0.00 0.00 0.00 98 915.6
20260509113327 62 58 6.0 8.0 0.00 0.00 0.00 98 915.5
20260509113028 62 53 6.0 8.0 0.00 0.00 0.00 98 915.5
20260509112827 61 45 0.0 7.0 0.00 0.00 0.00 98 915.5
20260509112428 62 68 3.0 8.0 0.00 0.00 0.00 98 915.4
20260509112327 62 72 0.0 8.0 0.00 0.00 0.00 97 915.4
20260509111828 62 59 8.0 10.0 0.00 0.00 0.00 98 915.3
20260509111826 62 51 8.0 10.0 0.00 0.00 0.00 98 915.4
20260509111327 62 66 8.0 10.0 0.00 0.00 0.00 98 915.3
20260509111228 62 64 8.0 10.0 0.00 0.00 0.00 98 915.4
20260509110826 62 45 6.0 7.0 0.00 0.00 0.00 97 915.5
20260509110628 62 64 5.0 6.0 0.00 0.00 0.00 97 915.5
20260509110326 62 67 4.0 5.0 0.00 0.00 0.00 98 915.6
20260509110028 62 54 4.0 6.0 0.00 0.00 0.00 98 915.5
20260509105428 62 81 4.0 6.0 0.00 0.00 0.00 98 915.5
20260509104828 62 76 4.0 6.0 0.00 0.00 0.00 97 915.5
20260509104228 62 77 4.0 6.0 0.00 0.00 0.00 97 915.5
20260509103628 62 51 4.0 5.0 0.00 0.00 0.00 97 915.5
20260509103028 62 64 3.0 4.0 0.00 0.00 0.00 98 915.5
20260509102428 62 81 3.0 4.0 0.00 0.00 0.00 98 915.4
20260509102327 62 57 3.0 4.0 0.00 0.00 0.00 98 915.4